FENGYUN 3G

Last updated on Thu Sep 10 2026 00:02:39 GMT+0000 (Coordinated Universal Time)

1 56232U 23055A 26252.52027656 .00019209 00000+0 30328-3 0 9992 2 56232 49.9912 271.1992 0012104 8.7268 351.3907 15.53402281193118
UTC large
Height (km)
Speed (km/s)
/
Latitude / Longitude
Inclination (degrees)
Orbital Period (minutes)
Azimuth
Elevation
Range (km)
Doppler Factor

Next 0 passes for location: London (51.5072 / 0.1276)

No passes found over London.
FENGYUN 3G